Regional Weather Roundup
Issued by NWS

Home | Current Version | Previous Version | Text Only | Print | Product List | Glossary Off
Versions: 1 2 3 4 5 6 7 8 9 10 11 12 13 14 15 16 17 18 19 20 21 22 23 24 25 26 27 28 29 30 31 32 33 34 35 36 37 38 39 40 41 42 43 44 45 46 47 48 49 50

418
ASUS45 KCYS 271810
RWRWY

WYOMING REGIONAL WEATHER ROUNDUP
NATIONAL WEATHER SERVICE CHEYENNE WY
1200 PM MDT SAT AUG 27 2016

NOTE:  "FAIR" INDICATES FEW OR NO CLOUDS BELOW 12,000 FEET
WITH NO SIGNIFICANT WEATHER AND/OR OBSTRUCTIONS TO VISIBILITY.

WYZ001-271900-
YELLOWSTONE NATIONAL PARK

CITY           SKY/WX    TMP DP  RH WIND       PRES   REMARKS
LK YELLOWSTONE   N/A     62  28  27 VRB5      30.20S
6HR MIN TEMP:  30; 6HR MAX TEMP:  62;

W YELLOWSTONE  NOT AVBL

$$
WYZ002>013-054>058-071-098>099-271900-
NORTHERN WYOMING

CITY           SKY/WX    TMP DP  RH WIND       PRES   REMARKS
JACKSON        SUNNY     64  30  27 S7        30.15F
CODY           FAIR      68  34  28 W7        30.01S
GREYBULL       FAIR      73  40  30 SE7       29.96F
6HR MIN TEMP:  47; 6HR MAX TEMP:  73;

WORLAND        FAIR      75  45  34 W6        29.95F
6HR MIN TEMP:  40; 6HR MAX TEMP:  76;

SHERIDAN       FAIR      79  40  24 E6        29.92F
6HR MIN TEMP:  44; 6HR MAX TEMP:  80;

BUFFALO        FAIR      76  38  25 E9        29.98F
6HR MIN TEMP:  50; 6HR MAX TEMP:  76;

GILLETTE       FAIR      77  37  23 SW8       29.95F
6HR MIN TEMP:  51; 6HR MAX TEMP:  78;

HULETT         FAIR      72  50  46 SW14G20   29.99S
NEWCASTLE      FAIR      68  50  52 S8        30.03F

$$
WYZ014>020-022>026-101>103-271900-
CENTRAL WYOMING

CITY           SKY/WX    TMP DP  RH WIND       PRES   REMARKS
BIG PINEY      FAIR      64  29  26 VRB3      30.21F
6HR MIN TEMP:  26; 6HR MAX TEMP:  64;

PINEDALE       FAIR      63  30  29 NW3       30.22S
DUBOIS         FAIR      66  23  19 W17G28    30.15S
LANDER         FAIR      71  37  28 VRB5      30.06F
6HR MIN TEMP:  42; 6HR MAX TEMP:  71;

RIVERTON       FAIR      68  39  34 CALM      30.08F
6HR MIN TEMP:  46; 6HR MAX TEMP:  68;

CASPER         FAIR      73  42  32 SW18      30.06F
6HR MIN TEMP:  50; 6HR MAX TEMP:  73;

DOUGLAS        FAIR      78  40  25 W9G18     30.05F
6HR MIN TEMP:  42; 6HR MAX TEMP:  78;


$$
WYZ021-027>030-104>119-271900-
SOUTHERN WYOMING

CITY           SKY/WX    TMP DP  RH WIND       PRES   REMARKS
EVANSTON       FAIR      71  28  20 SW17G23   30.23S
6HR MIN TEMP:  46; 6HR MAX TEMP:  71;

FORT BRIDGER   FAIR      74  24  15 W12G21    30.25S
ROCK SPRINGS   FAIR      69  28  21 W12G18    30.21F
6HR MIN TEMP:  48; 6HR MAX TEMP:  70;

DIXON          FAIR      71  37  29 SW12G18   30.25S
RAWLINS        FAIR      72  27  18 SW18G30   30.19F
6HR MIN TEMP:  49; 6HR MAX TEMP:  72;

SARATOGA       FAIR      68  28  22 W15G22    30.23S
LARAMIE        FAIR      69  27  20 W14G24    30.21R
6HR MIN TEMP:  42; 6HR MAX TEMP:  70;

CHEYENNE       FAIR      75  35  23 W10       30.15S
6HR MIN TEMP:  47; 6HR MAX TEMP:  77;

TORRINGTON     FAIR      77  45  32 VRB3      30.02F
6HR MIN TEMP:  51; 6HR MAX TEMP:  77;

PINE BLUFFS    FAIR      77  34  20 SW7       30.11F

$$




USA.gov is the U.S. government's official web portal to all federal, state and local government web resources and services.